Location: Caltech
(34.1382°N, 118.1253°W)
Time: 06:39:12
(UTC-07:00)

Cosmos 2251 Rocket - Visible Passes

Search period start: 28 September 2016 00:00
Search period end: 08 October 2016 00:00
Orbit: 765 x 792 km, 74.0° (Epoch: 28 September)

Date Brightness Start Highest point End Pass type
(mag) Time Alt. Az. Time Alt. Az. Time Alt. Az.
29 Sep 5.2 19:34:51 10° SE 19:36:02 14° SE 19:36:02 14° SE visible
29 Sep 5.4 21:15:00 10° SW 21:25:11 - N 21:16:49 21° SW visible
30 Sep 6.2 06:06:34 10° NNE 06:10:40 22° ENE 06:14:46 10° ESE visible
30 Sep 3.5 20:40:51 10° SSW 20:46:03 76° WNW 20:51:19 10° NNE visible
01 Oct 6.5 05:33:52 10° NNE 05:36:33 14° ENE 05:39:12 10° E visible
01 Oct 3.4 20:07:05 10° S 20:12:14 64° ESE 20:17:25 10° NNE visible
01 Oct 6.3 21:52:29 10° W 21:54:58 13° WNW 21:57:27 10° NNW visible
02 Oct 3.9 19:33:42 10° SSE 19:38:28 37° E 19:43:16 10° NE visible
02 Oct 5.8 21:16:52 10° WSW 21:20:50 22° WNW 21:24:49 10° NNW visible
03 Oct 4.8 06:06:25 10° N 06:11:32 45° ENE 06:16:38 10° SE visible
03 Oct 4.6 19:00:50 10° SSE 19:04:47 22° E 19:08:46 10° NE visible
03 Oct 5.0 20:42:03 10° SW 20:46:47 35° WNW 20:51:34 10° N visible
04 Oct 5.7 05:32:59 10° N 05:37:32 28° ENE 05:42:05 10° SE visible
04 Oct 4.1 20:07:42 10° SSW 20:12:50 58° WNW 20:18:01 10° N visible
05 Oct 6.3 04:59:56 10° NNE 05:03:28 18° ENE 05:06:59 10° ESE visible
05 Oct 3.4 19:33:45 10° SSW 19:38:58 84° ESE 19:44:14 10° NNE visible
05 Oct 6.7 21:21:25 10° WNW 21:21:54 10° WNW 21:22:24 10° NW visible
06 Oct 6.7 04:28:09 10° NE 04:29:17 11° ENE 04:30:25 10° ENE visible
06 Oct 3.5 06:06:51 10° NNW 06:12:12 83° WSW 06:17:34 10° SSE visible
06 Oct 3.7 19:00:10 10° S 19:05:10 49° ESE 19:10:13 10° NNE visible
06 Oct 6.2 20:44:22 10° WSW 20:47:43 17° WNW 20:51:06 10° NNW visible
07 Oct 4.2 05:33:03 10° N 05:38:20 59° ENE 05:43:36 10° SSE visible
07 Oct 5.6 20:09:13 10° WSW 20:13:38 27° WNW 20:18:06 10° N visible
